User: anonymous   Login
Location: Unspecified
(0.0000°N, 0.0000°E)
Time: 20:46:37
(UTC+00:00)
Language:

E-STAR-II - Orbit

View from above orbital plane
View from above orbital plane
View from above satellite
View from above satellite

Ground track
Ground track

The orbit data is extracted from the following two-line orbital elements,

1 41459U 16025D   22268.25721862  .00008979  00000-0  37589-3 0  9998
2 41459  98.1938  81.0044 0139014 290.2025  68.4328 15.15371937352607
Epoch (UTC): 25 September 2022 06:10:23
Eccentricity: 0.0139014
inclination: 98.1938°
perigee height: 424 km
apogee height: 616 km
right ascension of ascending node: 81.0044°
argument of perigee: 290.2025°
revolutions per day: 15.15371937
mean anomaly at epoch: 68.4328°
orbit number at epoch: 35260

The dashed part of the orbit path shows where the satellite is in the earth's shadow,  

DLR